Home   Weather   Minsk   Past weeks

Flag for Belarus Past Weather in Minsk, Belarus — Yesterday and Last 2 Weeks

Now
66 °F

Sprinkles. Passing clouds.


Feels Like: 66 °F
Forecast: 55 / 76 °F
Wind: 10 mph from East

Location: Minsk

Current Time: Jul 26, 2017 at 3:55:27 am

Latest Report: Jul 26, 2017 at 3:30 am


Visibility: 6 mi

Pressure: 29.53 "Hg

Humidity: 94%

Dew Point: 64 °F

Location of MinskLocation

Past Weather in Minsk — Graph

°F

Minsk Temperature Yesterday

Maximum temperature yesterday: 81 °F (at 3:30 pm)
Minimum temperature yesterday: 52 °F (at 5:30 am)
Average temperature yesterday: 68 °F

High & Low Weather Summary for the Past Weeks

 TemperatureHumidityPressure
High81 °F (Jul 25, 3:30 pm)100% (Jul 12, 12:00 am)30.12 "Hg (Jul 12, 12:00 am)
Low45 °F (Jul 15, 4:30 am)18% (Jul 13, 10:30 am)29.56 "Hg (Jul 25, 8:00 pm)
Average63 °F73%29.91 "Hg
* Reported Jul 11 2:00 am — Jul 26 2:30 am, Minsk. Weather by CustomWeather, © 2017

Note: Actual official high and low records may vary slightly from our data, if they occured in-between our weather recording intervals... More about our weather records

Advertising

Minsk Weather History for the Previous 24 Hours

Scroll right to see more
 ConditionsComfort  
Time TempWeatherWind HumidityBarometerVisibility
2:30 am
Wed, Jul 26
66 °FSprinkles. Passing clouds.3 mph94%29.56 "HgN/A
2:00 am66 °FPassing clouds.3 mph94%29.59 "HgN/A
1:41 am66 °FPassing clouds.3 mph94%29.59 "HgN/A
1:30 am66 °FPassing clouds.6 mph94%29.59 "HgN/A
1:14 am66 °FSprinkles. Passing clouds.8 mph94%29.59 "Hg6 mi
1:00 am66 °FSprinkles. Passing clouds.3 mph94%29.59 "HgN/A
12:44 am66 °FSprinkles. Passing clouds.3 mph94%29.59 "Hg4 mi
12:30 am66 °FSprinkles. Passing clouds.3 mph94%29.59 "Hg3 mi
12:24 am66 °FSprinkles. Passing clouds.6 mph94%29.59 "Hg2 mi
12:00 am66 °FThunderstorms. Passing clouds.10 mph94%29.59 "Hg4 mi
11:42 pm
Tue, Jul 25
66 °FThunderstorms. Passing clouds.8 mph100%29.59 "Hg1 mi
11:30 pm66 °FThunderstorms. Passing clouds.10 mph100%29.59 "Hg5 mi
11:14 pm66 °FThunderstorms. Passing clouds.10 mph100%29.59 "Hg5 mi
11:00 pm66 °FThunderstorms. Passing clouds.15 mph100%29.59 "Hg3 mi
10:36 pm66 °FThunderstorms. Passing clouds.10 mph100%29.62 "Hg2 mi
10:00 pm66 °FSprinkles. Partly sunny.10 mph94%29.59 "Hg4 mi
9:41 pm66 °FThunderstorms. Partly sunny.13 mph94%29.59 "Hg1 mi
9:34 pm66 °FStrong thunderstorms. Partly sunny.13 mph94%29.59 "Hg1 mi
9:06 pm66 °FStrong thunderstorms. Partly sunny.10 mph94%29.62 "Hg1 mi
8:30 pm68 °FThunderstorms. Partly sunny.17 mph88%29.59 "HgN/A
8:15 pm73 °FThunderstorms. Partly sunny.13 mph78%29.56 "HgN/A
8:00 pm73 °FThunderstorms. Partly sunny.3 mph78%29.56 "HgN/A
7:33 pm73 °FThunderstorms. Partly sunny.No wind83%29.59 "HgN/A
7:04 pm75 °FThundershowers. Mostly cloudy.3 mph78%29.59 "HgN/A
6:30 pm77 °FSprinkles. Broken clouds.10 mph69%29.59 "HgN/A
6:00 pm79 °FBroken clouds.13 mph61%29.59 "HgN/A
5:30 pm79 °FBroken clouds.13 mph65%29.59 "HgN/A
5:02 pm79 °FThunderstorms. Broken clouds.8 mph61%29.62 "HgN/A
4:30 pm81 °FBroken clouds.13 mph58%29.59 "HgN/A
4:00 pm81 °FBroken clouds.10 mph58%29.62 "HgN/A
3:30 pm81 °FBroken clouds.6 mph58%29.62 "HgN/A
3:00 pm79 °FBroken clouds.6 mph70%29.65 "HgN/A
2:30 pm73 °FBroken clouds.10 mph78%29.65 "HgN/A
2:10 pm79 °FSprinkles. Broken clouds.13 mph58%29.65 "Hg4 mi
2:06 pm79 °FSprinkles. Broken clouds.10 mph58%29.65 "Hg3 mi
1:30 pm79 °FBroken clouds.10 mph58%29.65 "HgN/A
1:00 pm77 °FPassing clouds.10 mph57%29.68 "HgN/A
12:30 pm79 °FSunny.10 mph54%29.68 "Hg10 mi
12:00 pm77 °FPassing clouds.8 mph54%29.68 "HgN/A
11:30 am75 °FPassing clouds.8 mph57%29.68 "HgN/A
11:00 am73 °FPassing clouds.6 mph61%29.68 "HgN/A
10:30 am72 °FSunny.8 mph65%29.68 "Hg10 mi
10:00 am72 °FPartly sunny.8 mph65%29.71 "HgN/A
9:30 am70 °FPartly sunny.6 mph69%29.71 "HgN/A
9:00 am70 °FBroken clouds.3 mph64%29.71 "HgN/A
8:30 am66 °FBroken clouds.3 mph73%29.71 "HgN/A
8:00 am64 °FBroken clouds.3 mph78%29.71 "HgN/A
7:30 am61 °FBroken clouds.3 mph88%29.71 "HgN/A
7:00 am59 °FBroken clouds.No wind94%29.71 "HgN/A
6:30 am59 °FBroken clouds.No wind100%29.71 "HgN/A
6:00 am55 °FFog.1 mph100%29.74 "HgN/A
5:40 am52 °FPartly cloudy.No wind100%29.74 "Hg5 mi
5:30 am52 °FPassing clouds.No wind100%29.74 "Hg4 mi
5:16 am54 °FFog.No wind94%29.74 "Hg3 mi
5:09 am54 °FFog.No wind94%29.74 "Hg1 mi
4:30 am54 °FLight fog.No wind100%29.74 "Hg4 mi
4:22 am55 °FLight fog.No wind94%29.74 "Hg4 mi
3:30 am57 °FClear.1 mph94%29.74 "Hg10 mi
3:00 am57 °FClear.3 mph100%29.74 "Hg10 mi
Weather by CustomWeather, © 2017

See weather overviewHow to use our weather pages